Location: *
(46.1866°S, 178.5290°W)
Time: 04:05:43
(UTC+00:00)

deb Agena D - Visible Passes

Search period start: 06 December 2021 00:00
Search period end: 16 December 2021 00:00
Orbit: 606 x 615 km, 99.9° (Epoch: 05 December)

Date Brightness Start Highest point End Pass type
(mag) Time Alt. Az. Time Alt. Az. Time Alt. Az.
06 Dec ? 09:33:01 25° NE 09:35:20 57° ESE 09:39:38 10° S visible
06 Dec ? 11:09:59 14° WNW 11:11:23 16° W 11:14:05 10° SW visible
07 Dec ? 08:13:44 10° ESE 08:14:40 11° SE 08:15:35 10° SE visible
07 Dec ? 09:47:28 30° NNE 09:49:36 78° ESE 09:53:59 10° SSW visible
07 Dec ? 11:24:26 10° WNW 11:25:50 12° W 11:27:22 10° WSW visible
08 Dec ? 08:26:33 10° E 08:28:46 14° ESE 08:30:59 10° SSE visible
08 Dec ? 10:01:55 32° N 10:03:52 78° WNW 10:08:15 10° SSW visible
09 Dec ? 08:39:56 10° ENE 08:42:51 18° ESE 08:45:48 10° SSE visible
09 Dec ? 10:16:20 32° NNW 10:18:08 57° WNW 10:22:27 10° SSW visible
10 Dec ? 08:53:46 11° ENE 08:56:57 23° ESE 09:00:24 10° S visible
10 Dec ? 10:30:44 28° NNW 10:32:25 41° W 10:36:34 10° SSW visible
11 Dec ? 09:08:09 15° ENE 09:11:04 30° ESE 09:14:52 10° S visible
11 Dec ? 10:45:06 24° NW 10:46:42 30° W 10:50:34 10° SW visible
12 Dec ? 09:22:30 19° NE 09:25:10 39° ESE 09:29:15 10° S visible
12 Dec ? 10:59:28 19° NW 11:00:59 23° W 11:04:28 10° SW visible
13 Dec ? 09:36:51 24° NE 09:39:17 53° ESE 09:43:32 10° S visible
13 Dec ? 11:13:48 15° WNW 11:15:16 17° W 11:18:09 10° SW visible
14 Dec ? 09:51:10 28° NNE 09:53:24 72° ESE 09:57:45 10° SSW visible
14 Dec ? 11:28:07 11° WNW 11:29:34 13° W 11:31:28 10° WSW visible
15 Dec ? 08:30:29 10° E 08:32:27 13° SE 08:34:25 10° SSE visible
15 Dec ? 10:05:28 31° NNE 10:07:30 84° WNW 10:11:54 10° SSW visible
